Time,TemperatureF,DewpointF,PressureIn,WindDirection,WindDirectionDegrees,WindSpeedMPH,WindSpeedGustMPH,Humidity,HourlyPrecipIn,Conditions,Clouds,dailyrainin,SoftwareType,DateUTC
2013-03-18 00:00:00,28.3,11.6,30.29,NNW,340,0.0,217.7,49,0.02,,,0.00,VWS V14.01,2013-03-18 04:00:00,
2013-03-18 00:01:00,27.3,12.1,30.31,North,359,0.0,217.7,52,0.02,,,0.00,VWS V14.01,2013-03-18 04:01:00,
2013-03-18 00:02:00,28.2,11.3,30.29,NNW,340,0.0,217.7,48,0.02,,,0.00,VWS V14.01,2013-03-18 04:02:00,
2013-03-18 00:03:00,28.1,11.2,30.29,NNW,340,0.0,217.7,48,0.02,,,0.00,VWS V14.01,2013-03-18 04:03:00,
2013-03-18 00:04:00,27.4,11.3,30.30,North,359,0.0,217.7,50,0.02,,,0.00,VWS V14.01,2013-03-18 04:04:00,
2013-03-18 00:05:00,28.1,11.4,30.29,NNW,340,0.0,217.7,49,0.02,,,0.00,VWS V14.01,2013-03-18 04:05:00,
2013-03-18 00:06:00,27.4,11.7,30.30,North,359,0.0,217.7,51,0.02,,,0.00,VWS V14.01,2013-03-18 04:06:00,
2013-03-18 00:07:00,27.3,11.6,30.30,North,359,0.0,217.7,51,0.02,,,0.00,VWS V14.01,2013-03-18 04:07:00,
2013-03-18 00:08:00,27.2,11.2,30.30,North,359,0.0,217.7,50,0.02,,,0.00,VWS V14.01,2013-03-18 04:08:00,
2013-03-18 00:09:00,27.3,11.2,30.30,North,359,0.0,217.7,50,0.02,,,0.00,VWS V14.01,2013-03-18 04:09:00,
2013-03-18 00:10:00,28.1,11.5,30.29,NNW,340,0.0,217.7,49,0.02,,,0.00,VWS V14.01,2013-03-18 04:10:00,
2013-03-18 00:11:00,27.2,10.9,30.30,North,359,0.0,217.7,50,0.02,,,0.00,VWS V14.01,2013-03-18 04:11:00,
2013-03-18 00:12:00,27.2,10.9,30.30,North,359,0.0,217.7,50,0.02,,,0.00,VWS V14.01,2013-03-18 04:12:00,
2013-03-18 00:13:00,27.2,10.9,30.30,North,359,0.0,217.7,50,0.02,,,0.00,VWS V14.01,2013-03-18 04:13:00,
2013-03-18 00:14:00,27.3,11.1,30.31,North,359,0.0,217.7,50,0.02,,,0.00,VWS V14.01,2013-03-18 04:14:00,
2013-03-18 00:15:00,28.3,11.7,30.29,NNW,340,0.0,217.7,49,0.02,,,0.00,VWS V14.01,2013-03-18 04:15:00,
2013-03-18 00:16:00,27.2,10.9,30.31,North,359,0.0,217.7,50,0.02,,,0.00,VWS V14.01,2013-03-18 04:16:00,
2013-03-18 00:17:00,27.2,10.9,30.31,North,359,0.0,217.7,50,0.02,,,0.00,VWS V14.01,2013-03-18 04:17:00,
2013-03-18 00:18:00,27.3,11.3,30.31,North,359,0.0,217.7,50,0.02,,,0.00,VWS V14.01,2013-03-18 04:18:00,
2013-03-18 00:19:00,27.2,11.0,30.31,North,359,0.0,217.7,50,0.02,,,0.00,VWS V14.01,2013-03-18 04:19:00,
2013-03-18 00:20:00,27.3,10.8,30.31,North,359,0.0,217.7,49,0.02,,,0.00,VWS V14.01,2013-03-18 04:20:00,
2013-03-18 00:21:00,28.2,11.6,30.29,NNW,340,0.0,217.7,49,0.02,,,0.00,VWS V14.01,2013-03-18 04:21:00,
2013-03-18 00:22:00,27.1,10.3,30.31,North,359,0.0,217.7,48,0.02,,,0.00,VWS V14.01,2013-03-18 04:22:00,
2013-03-18 00:24:00,27.3,10.4,30.30,North,359,0.0,217.7,48,0.02,,,0.00,VWS V14.01,2013-03-18 04:24:00,
2013-03-18 00:25:00,27.1,10.4,30.30,North,359,0.0,217.7,49,0.02,,,0.00,VWS V14.01,2013-03-18 04:25:00,
2013-03-18 00:26:00,28.1,11.8,30.29,NNW,340,0.0,217.7,50,0.02,,,0.00,VWS V14.01,2013-03-18 04:26:00,
2013-03-18 00:27:00,27.0,9.9,30.30,North,359,0.0,217.7,48,0.02,,,0.00,VWS V14.01,2013-03-18 04:27:00,
2013-03-18 00:28:00,27.1,10.1,30.30,North,359,0.0,217.7,48,0.02,,,0.00,VWS V14.01,2013-03-18 04:28:00,
2013-03-18 00:29:00,27.0,9.9,30.30,North,359,0.0,217.7,48,0.02,,,0.00,VWS V14.01,2013-03-18 04:29:00,
2013-03-18 00:30:00,26.9,9.5,30.31,North,359,0.0,217.7,47,0.02,,,0.00,VWS V14.01,2013-03-18 04:30:00,
2013-03-18 00:31:00,27.7,11.6,30.29,North,11,0.0,217.7,50,0.02,,,0.00,VWS V14.01,2013-03-18 04:31:00,
2013-03-18 00:32:00,27.1,10.0,30.31,North,359,0.0,217.7,48,0.02,,,0.00,VWS V14.01,2013-03-18 04:32:00,
2013-03-18 00:33:00,27.1,9.8,30.31,North,359,0.0,217.7,48,0.02,,,0.00,VWS V14.01,2013-03-18 04:33:00,
2013-03-18 00:34:00,27.1,9.7,30.31,North,359,0.0,217.7,47,0.02,,,0.00,VWS V14.01,2013-03-18 04:34:00,
2013-03-18 00:35:00,27.0,9.7,30.31,North,359,0.0,217.7,47,0.02,,,0.00,VWS V14.01,2013-03-18 04:35:00,
2013-03-18 00:36:00,27.1,9.8,30.31,North,359,0.0,217.7,48,0.02,,,0.00,VWS V14.01,2013-03-18 04:36:00,
2013-03-18 00:37:00,27.8,12.5,30.30,North,359,0.0,217.7,52,0.02,,,0.00,VWS V14.01,2013-03-18 04:37:00,
2013-03-18 00:38:00,26.9,9.6,30.30,North,359,0.0,217.7,47,0.02,,,0.00,VWS V14.01,2013-03-18 04:38:00,
2013-03-18 00:39:00,26.8,9.6,30.30,North,359,0.0,217.7,48,0.02,,,0.00,VWS V14.01,2013-03-18 04:39:00,
2013-03-18 00:40:00,26.9,9.8,30.30,North,359,0.0,217.7,48,0.02,,,0.00,VWS V14.01,2013-03-18 04:40:00,
2013-03-18 00:41:00,26.8,9.7,30.30,North,359,0.0,217.7,48,0.02,,,0.00,VWS V14.01,2013-03-18 04:41:00,
2013-03-18 00:42:00,27.9,11.6,30.30,North,359,0.0,217.7,50,0.02,,,0.00,VWS V14.01,2013-03-18 04:42:00,
2013-03-18 00:43:00,26.7,10.0,30.31,North,359,0.0,217.7,49,0.02,,,0.00,VWS V14.01,2013-03-18 04:43:00,
2013-03-18 00:44:00,26.7,10.1,30.31,North,359,0.0,217.7,49,0.02,,,0.00,VWS V14.01,2013-03-18 04:44:00,
2013-03-18 00:46:00,26.9,10.4,30.31,North,359,0.0,217.7,49,0.02,,,0.00,VWS V14.01,2013-03-18 04:46:00,
2013-03-18 00:47:00,27.6,12.1,30.30,North,359,0.0,217.7,52,0.02,,,0.00,VWS V14.01,2013-03-18 04:47:00,
2013-03-18 00:48:00,26.8,10.1,30.31,North,359,0.0,217.7,49,0.02,,,0.00,VWS V14.01,2013-03-18 04:48:00,
2013-03-18 00:49:00,26.8,10.4,30.31,North,359,0.0,217.7,49,0.02,,,0.00,VWS V14.01,2013-03-18 04:49:00,
2013-03-18 00:50:00,26.8,10.1,30.31,North,359,0.0,217.7,49,0.02,,,0.00,VWS V14.01,2013-03-18 04:50:00,
2013-03-18 00:51:00,26.8,10.2,30.31,North,359,0.0,217.7,49,0.02,,,0.00,VWS V14.01,2013-03-18 04:51:00,
2013-03-18 00:52:00,26.9,10.3,30.31,North,359,0.0,217.7,49,0.02,,,0.00,VWS V14.01,2013-03-18 04:52:00,
2013-03-18 00:53:00,27.3,11.7,30.30,North,359,0.0,217.7,51,0.02,,,0.00,VWS V14.01,2013-03-18 04:53:00,
2013-03-18 00:55:00,26.6,9.8,30.31,North,359,0.0,217.7,48,0.02,,,0.00,VWS V14.01,2013-03-18 04:55:00,
2013-03-18 00:56:00,26.6,10.0,30.31,North,359,0.0,217.7,49,0.02,,,0.00,VWS V14.01,2013-03-18 04:56:00,
2013-03-18 00:57:00,26.6,10.1,30.31,North,359,0.0,217.7,49,0.02,,,0.00,VWS V14.01,2013-03-18 04:57:00,
2013-03-18 00:58:00,26.6,10.0,30.31,North,359,0.0,217.7,49,0.02,,,0.00,VWS V14.01,2013-03-18 04:58:00,
2013-03-18 00:59:00,26.5,10.1,30.31,North,359,0.0,217.7,49,0.02,,,0.00,VWS V14.01,2013-03-18 04:59:00,
2013-03-18 01:00:00,26.5,10.2,30.31,North,359,0.0,217.7,50,0.02,,,0.00,VWS V14.01,2013-03-18 05:00:00,
2013-03-18 01:01:00,26.5,10.4,30.31,North,359,0.0,217.7,50,0.02,,,0.00,VWS V14.01,2013-03-18 05:01:00,
2013-03-18 01:02:00,26.5,10.2,30.31,North,359,0.0,217.7,50,0.02,,,0.00,VWS V14.01,2013-03-18 05:02:00,
2013-03-18 01:03:00,26.4,10.1,30.31,NNE,17,0.0,217.7,50,0.02,,,0.00,VWS V14.01,2013-03-18 05:03:00,
2013-03-18 01:04:00,26.4,10.1,30.31,NNE,17,0.0,217.7,50,0.02,,,0.00,VWS V14.01,2013-03-18 05:04:00,
2013-03-18 01:05:00,26.4,10.2,30.31,NNE,17,0.0,217.7,50,0.02,,,0.00,VWS V14.01,2013-03-18 05:05:00,
2013-03-18 01:06:00,26.4,10.6,30.31,NNE,17,0.0,217.7,51,0.02,,,0.00,VWS V14.01,2013-03-18 05:06:00,
2013-03-18 01:07:00,26.4,10.5,30.31,NNE,17,0.0,217.7,50,0.02,,,0.00,VWS V14.01,2013-03-18 05:07:00,
2013-03-18 01:08:00,26.4,10.3,30.32,NNE,17,0.0,217.7,50,0.02,,,0.00,VWS V14.01,2013-03-18 05:08:00,
2013-03-18 01:10:00,26.4,10.2,30.31,North,359,0.0,217.7,50,0.02,,,0.00,VWS V14.01,2013-03-18 05:10:00,
2013-03-18 01:11:00,26.3,10.3,30.31,North,359,0.0,217.7,50,0.02,,,0.00,VWS V14.01,2013-03-18 05:11:00,
2013-03-18 01:12:00,26.2,10.4,30.31,North,359,0.0,217.7,51,0.02,,,0.00,VWS V14.01,2013-03-18 05:12:00,
2013-03-18 01:14:00,26.1,10.3,30.31,North,359,0.0,217.7,51,0.02,,,0.00,VWS V14.01,2013-03-18 05:14:00,
2013-03-18 01:16:00,26.1,10.7,30.31,North,359,0.0,217.7,52,0.02,,,0.00,VWS V14.01,2013-03-18 05:16:00,
2013-03-18 01:19:00,26.0,11.0,30.31,North,359,0.0,217.7,52,0.02,,,0.00,VWS V14.01,2013-03-18 05:19:00,
2013-03-18 01:20:00,26.1,11.0,30.31,North,359,0.0,217.7,52,0.02,,,0.00,VWS V14.01,2013-03-18 05:20:00,
2013-03-18 01:24:00,25.9,10.7,30.32,North,359,0.0,217.7,52,0.02,,,0.00,VWS V14.01,2013-03-18 05:24:00,
2013-03-18 01:25:00,25.9,10.8,30.32,North,359,0.0,217.7,52,0.02,,,0.00,VWS V14.01,2013-03-18 05:25:00,
2013-03-18 01:26:00,25.9,10.9,30.32,North,359,0.0,217.7,52,0.02,,,0.00,VWS V14.01,2013-03-18 05:26:00,
2013-03-18 01:27:00,25.8,10.7,30.32,North,359,0.0,217.7,52,0.02,,,0.00,VWS V14.01,2013-03-18 05:27:00,
2013-03-18 01:28:00,25.8,10.7,30.32,North,359,0.0,217.7,52,0.02,,,0.00,VWS V14.01,2013-03-18 05:28:00,
2013-03-18 01:29:00,25.8,10.9,30.32,North,359,0.0,217.7,53,0.02,,,0.00,VWS V14.01,2013-03-18 05:29:00,
2013-03-18 01:30:00,25.8,11.2,30.32,North,359,0.0,217.7,53,0.02,,,0.00,VWS V14.01,2013-03-18 05:30:00,
2013-03-18 01:44:00,25.9,11.2,30.32,NW,308,0.0,217.7,53,0.02,,,0.00,VWS V14.01,2013-03-18 05:44:00,
2013-03-18 02:07:00,26.4,10.3,30.32,North,359,0.0,217.7,50,0.02,,,0.00,VWS V14.01,2013-03-18 06:07:00,
2013-03-18 02:14:00,26.1,10.9,30.31,North,359,0.0,217.7,52,0.02,,,0.00,VWS V14.01,2013-03-18 06:14:00,
2013-03-18 02:19:00,26.1,11.1,30.31,North,359,0.0,217.7,52,0.02,,,0.00,VWS V14.01,2013-03-18 06:19:00,
2013-03-18 02:30:00,25.8,11.7,30.32,NNE,18,4.3,217.7,55,0.02,,,0.00,VWS V14.01,2013-03-18 06:30:00,
2013-03-18 02:35:00,25.8,11.2,30.32,North,6,0.0,217.7,53,0.02,,,0.00,VWS V14.01,2013-03-18 06:35:00,
2013-03-18 02:40:00,25.8,11.1,30.32,NW,308,0.0,217.7,53,0.02,,,0.00,VWS V14.01,2013-03-18 06:40:00,
2013-03-18 02:45:00,25.7,11.0,30.32,NW,308,0.0,217.7,53,0.02,,,0.00,VWS V14.01,2013-03-18 06:45:00,
2013-03-18 02:51:00,25.3,10.8,30.32,North,350,8.6,217.7,54,0.02,,,0.00,VWS V14.01,2013-03-18 06:51:00,
2013-03-18 02:57:00,25.3,11.0,30.32,North,0,0.0,217.7,54,0.02,,,0.00,VWS V14.01,2013-03-18 06:57:00,
2013-03-18 03:02:00,25.3,10.9,30.32,NNE,15,0.0,217.7,54,0.02,,,0.00,VWS V14.01,2013-03-18 07:02:00,
2013-03-18 03:07:00,25.3,10.9,30.32,NNE,15,0.0,217.7,54,0.02,,,0.00,VWS V14.01,2013-03-18 07:07:00,
2013-03-18 03:13:00,25.4,11.3,30.33,NNE,15,0.0,217.7,55,0.02,,,0.00,VWS V14.01,2013-03-18 07:13:00,
2013-03-18 03:18:00,25.4,11.2,30.33,NNE,15,0.0,217.7,54,0.02,,,0.00,VWS V14.01,2013-03-18 07:18:00,
2013-03-18 03:23:00,25.4,11.5,30.33,NNE,15,0.0,217.7,55,0.02,,,0.00,VWS V14.01,2013-03-18 07:23:00,
2013-03-18 03:29:00,25.5,11.6,30.34,NNE,15,0.0,217.7,55,0.02,,,0.00,VWS V14.01,2013-03-18 07:29:00,
2013-03-18 03:34:00,25.5,12.1,30.33,NNE,15,0.0,217.7,56,0.02,,,0.00,VWS V14.01,2013-03-18 07:34:00,
2013-03-18 03:39:00,25.4,11.9,30.34,NNE,15,0.0,217.7,56,0.02,,,0.00,VWS V14.01,2013-03-18 07:39:00,
2013-03-18 03:45:00,25.4,11.1,30.34,NNE,15,0.0,217.7,54,0.02,,,0.00,VWS V14.01,2013-03-18 07:45:00,
2013-03-18 03:50:00,25.1,12.6,30.34,NNE,15,0.0,217.7,59,0.02,,,0.00,VWS V14.01,2013-03-18 07:50:00,
2013-03-18 03:55:00,24.8,11.1,30.33,NNE,15,0.0,217.7,55,0.02,,,0.00,VWS V14.01,2013-03-18 07:55:00,
2013-03-18 04:00:00,24.8,11.3,30.34,NNE,15,0.0,217.7,56,0.02,,,0.00,VWS V14.01,2013-03-18 08:00:00,
2013-03-18 04:06:00,24.8,11.3,30.34,NNE,15,0.0,217.7,56,0.02,,,0.00,VWS V14.01,2013-03-18 08:06:00,
2013-03-18 04:12:00,24.7,11.0,30.34,NNE,15,0.0,217.7,55,0.02,,,0.00,VWS V14.01,2013-03-18 08:12:00,
2013-03-18 04:17:00,24.7,11.3,30.34,NNE,15,0.0,217.7,56,0.02,,,0.00,VWS V14.01,2013-03-18 08:17:00,
2013-03-18 04:22:00,24.6,10.9,30.35,NNE,15,0.0,217.7,55,0.02,,,0.00,VWS V14.01,2013-03-18 08:22:00,
2013-03-18 04:27:00,24.5,11.2,30.35,NNE,15,0.0,217.7,56,0.02,,,0.00,VWS V14.01,2013-03-18 08:27:00,
2013-03-18 04:33:00,24.5,10.9,30.35,NNE,15,0.0,217.7,56,0.02,,,0.00,VWS V14.01,2013-03-18 08:33:00,
2013-03-18 04:38:00,24.5,11.0,30.36,NNE,15,0.0,217.7,56,0.02,,,0.00,VWS V14.01,2013-03-18 08:38:00,
2013-03-18 04:44:00,24.3,12.7,30.35,NNE,15,0.0,217.7,61,0.02,,,0.00,VWS V14.01,2013-03-18 08:44:00,
2013-03-18 04:49:00,24.1,11.6,30.35,NNE,15,0.0,217.7,58,0.02,,,0.00,VWS V14.01,2013-03-18 08:49:00,
2013-03-18 04:54:00,24.0,12.1,30.36,NNE,15,0.0,217.7,60,0.02,,,0.00,VWS V14.01,2013-03-18 08:54:00,
2013-03-18 05:00:00,23.7,13.0,30.35,NNE,15,0.0,217.7,63,0.02,,,0.00,VWS V14.01,2013-03-18 09:00:00,
2013-03-18 05:05:00,23.4,11.3,30.36,NNE,15,0.0,217.7,59,0.02,,,0.00,VWS V14.01,2013-03-18 09:05:00,
2013-03-18 05:10:00,23.4,10.7,30.36,NNE,15,0.0,217.7,58,0.02,,,0.00,VWS V14.01,2013-03-18 09:10:00,
2013-03-18 05:15:00,23.6,10.1,30.36,NNE,15,0.0,217.7,56,0.02,,,0.00,VWS V14.01,2013-03-18 09:15:00,
2013-03-18 05:21:00,23.7,10.1,30.37,NNE,15,0.0,217.7,56,0.02,,,0.00,VWS V14.01,2013-03-18 09:21:00,
2013-03-18 05:26:00,23.6,11.2,30.36,NNE,15,0.0,217.7,58,0.02,,,0.00,VWS V14.01,2013-03-18 09:26:00,
2013-03-18 05:31:00,23.6,10.6,30.37,NNE,15,0.0,217.7,57,0.02,,,0.00,VWS V14.01,2013-03-18 09:31:00,
2013-03-18 05:37:00,23.7,10.2,30.37,NNE,15,0.0,217.7,56,0.02,,,0.00,VWS V14.01,2013-03-18 09:37:00,
2013-03-18 05:43:00,23.5,10.6,30.36,NNE,15,0.0,217.7,57,0.02,,,0.00,VWS V14.01,2013-03-18 09:43:00,
2013-03-18 05:48:00,23.6,10.3,30.37,NNE,15,0.0,217.7,56,0.02,,,0.00,VWS V14.01,2013-03-18 09:48:00,
2013-03-18 05:53:00,23.6,10.0,30.37,NNE,15,0.0,217.7,55,0.02,,,0.00,VWS V14.01,2013-03-18 09:53:00,
2013-03-18 05:59:00,23.6,10.1,30.37,NNE,15,0.0,217.7,56,0.02,,,0.00,VWS V14.01,2013-03-18 09:59:00,
2013-03-18 06:04:00,23.6,10.4,30.37,NNE,15,0.0,217.7,56,0.02,,,0.00,VWS V14.01,2013-03-18 10:04:00,
2013-03-18 06:10:00,23.7,10.7,30.37,NNE,15,0.0,217.7,57,0.02,,,0.00,VWS V14.01,2013-03-18 10:10:00,
2013-03-18 06:15:00,23.9,11.1,30.38,NNE,15,0.0,217.7,58,0.02,,,0.00,VWS V14.01,2013-03-18 10:15:00,
2013-03-18 06:20:00,23.9,11.1,30.38,NNE,15,0.0,217.7,57,0.02,,,0.00,VWS V14.01,2013-03-18 10:20:00,
2013-03-18 06:25:00,23.9,11.3,30.38,NNE,15,0.0,217.7,58,0.02,,,0.00,VWS V14.01,2013-03-18 10:25:00,
2013-03-18 06:31:00,23.9,11.2,30.38,NNE,15,0.0,217.7,58,0.02,,,0.00,VWS V14.01,2013-03-18 10:31:00,
2013-03-18 06:36:00,23.8,11.6,30.39,NNE,15,0.0,217.7,59,0.02,,,0.00,VWS V14.01,2013-03-18 10:36:00,
2013-03-18 06:41:00,23.8,11.1,30.39,NNE,15,0.0,217.7,58,0.02,,,0.00,VWS V14.01,2013-03-18 10:41:00,
2013-03-18 06:46:00,23.9,11.4,30.39,NNE,15,0.0,217.7,58,0.02,,,0.00,VWS V14.01,2013-03-18 10:46:00,
2013-03-18 06:52:00,24.0,11.4,30.39,NNE,15,0.0,217.7,58,0.02,,,0.00,VWS V14.01,2013-03-18 10:52:00,
2013-03-18 06:57:00,24.1,11.5,30.39,NNE,15,0.0,217.7,58,0.02,,,0.00,VWS V14.01,2013-03-18 10:57:00,
2013-03-18 07:02:00,24.2,11.8,30.39,NNE,15,0.0,217.7,59,0.02,,,0.00,VWS V14.01,2013-03-18 11:02:00,
2013-03-18 07:07:00,24.3,11.8,30.38,NNE,15,0.0,217.7,58,0.02,,,0.00,VWS V14.01,2013-03-18 11:07:00,
2013-03-18 07:13:00,24.3,12.1,30.39,NNE,15,0.0,217.7,59,0.02,,,0.00,VWS V14.01,2013-03-18 11:13:00,
2013-03-18 07:18:00,24.4,12.3,30.39,NNE,15,0.0,217.7,59,0.02,,,0.00,VWS V14.01,2013-03-18 11:18:00,
2013-03-18 07:23:00,24.5,12.5,30.39,NNE,15,0.0,217.7,60,0.02,,,0.00,VWS V14.01,2013-03-18 11:23:00,
2013-03-18 07:29:00,24.4,12.2,30.39,NNE,15,0.0,217.7,59,0.02,,,0.00,VWS V14.01,2013-03-18 11:29:00,
2013-03-18 07:34:00,24.6,13.0,30.39,NNE,15,0.0,217.7,61,0.02,,,0.00,VWS V14.01,2013-03-18 11:34:00,
2013-03-18 07:39:00,24.8,12.9,30.39,NNE,15,0.0,217.7,60,0.02,,,0.00,VWS V14.01,2013-03-18 11:39:00,
2013-03-18 07:44:00,25.1,13.1,30.39,NNE,15,0.0,217.7,60,0.02,,,0.00,VWS V14.01,2013-03-18 11:44:00,
2013-03-18 07:50:00,25.3,13.2,30.39,NNE,15,0.0,217.7,60,0.02,,,0.00,VWS V14.01,2013-03-18 11:50:00,
2013-03-18 07:56:00,25.6,13.5,30.39,NNE,15,0.0,217.7,60,0.02,,,0.00,VWS V14.01,2013-03-18 11:56:00,
2013-03-18 08:01:00,25.7,13.4,30.39,NNE,15,0.0,217.7,59,0.02,,,0.00,VWS V14.01,2013-03-18 12:01:00,
2013-03-18 08:07:00,26.0,13.2,30.39,NNE,15,0.0,217.7,58,0.02,,,0.00,VWS V14.01,2013-03-18 12:07:00,
2013-03-18 08:12:00,26.1,13.0,30.39,NE,53,0.0,217.7,57,0.02,,,0.00,VWS V14.01,2013-03-18 12:12:00,
2013-03-18 08:17:00,26.3,12.7,30.39,ENE,58,0.0,217.7,56,0.02,,,0.00,VWS V14.01,2013-03-18 12:17:00,
2013-03-18 08:22:00,26.2,12.5,30.39,ENE,58,0.0,217.7,56,0.02,,,0.00,VWS V14.01,2013-03-18 12:22:00,
2013-03-18 08:28:00,26.4,12.3,30.39,ENE,58,0.0,217.7,55,0.02,,,0.00,VWS V14.01,2013-03-18 12:28:00,
2013-03-18 08:33:00,26.5,12.1,30.39,ENE,58,0.0,217.7,54,0.02,,,0.00,VWS V14.01,2013-03-18 12:33:00,
2013-03-18 08:38:00,26.8,12.7,30.39,NE,34,0.0,217.7,55,0.02,,,0.00,VWS V14.01,2013-03-18 12:38:00,
2013-03-18 08:44:00,26.8,12.4,30.39,ENE,76,0.0,217.7,54,0.02,,,0.00,VWS V14.01,2013-03-18 12:44:00,
2013-03-18 08:49:00,27.0,11.6,30.39,East,79,0.0,217.7,52,0.02,,,0.00,VWS V14.01,2013-03-18 12:49:00,
2013-03-18 08:54:00,27.3,12.6,30.39,East,79,0.0,217.7,53,0.02,,,0.00,VWS V14.01,2013-03-18 12:54:00,
2013-03-18 09:00:00,27.8,12.7,30.39,East,79,0.0,217.7,53,0.02,,,0.00,VWS V14.01,2013-03-18 13:00:00,
2013-03-18 09:05:00,28.2,12.5,30.39,East,79,0.0,217.7,51,0.02,,,0.00,VWS V14.01,2013-03-18 13:05:00,
2013-03-18 09:10:00,28.3,12.1,30.39,East,79,0.0,217.7,50,0.02,,,0.00,VWS V14.01,2013-03-18 13:10:00,
2013-03-18 09:16:00,28.5,11.4,30.39,East,79,0.0,217.7,48,0.02,,,0.00,VWS V14.01,2013-03-18 13:16:00,
2013-03-18 09:21:00,28.5,11.5,30.39,ENE,70,0.0,217.7,48,0.02,,,0.00,VWS V14.01,2013-03-18 13:21:00,
2013-03-18 09:27:00,28.7,10.7,30.39,East,79,0.0,217.7,46,0.02,,,0.00,VWS V14.01,2013-03-18 13:27:00,
2013-03-18 09:32:00,29.0,11.6,30.39,East,79,0.0,217.7,48,0.02,,,0.00,VWS V14.01,2013-03-18 13:32:00,
2013-03-18 09:37:00,29.7,12.5,30.39,East,79,0.0,217.7,48,0.02,,,0.00,VWS V14.01,2013-03-18 13:37:00,
2013-03-18 09:43:00,30.3,12.3,30.39,East,79,0.0,217.7,46,0.02,,,0.00,VWS V14.01,2013-03-18 13:43:00,
2013-03-18 09:49:00,30.7,12.0,30.39,East,79,0.0,217.7,45,0.02,,,0.00,VWS V14.01,2013-03-18 13:49:00,
2013-03-18 09:55:00,30.9,12.3,30.39,East,79,0.0,217.7,45,0.02,,,0.00,VWS V14.01,2013-03-18 13:55:00,
2013-03-18 10:00:00,31.4,12.7,30.38,East,84,0.0,217.7,45,0.02,,,0.00,VWS V14.01,2013-03-18 14:00:00,
2013-03-18 10:06:00,31.7,11.9,30.38,East,84,0.0,217.7,43,0.02,,,0.00,VWS V14.01,2013-03-18 14:06:00,
2013-03-18 10:11:00,32.2,12.4,30.38,East,79,0.0,217.7,43,0.02,,,0.00,VWS V14.01,2013-03-18 14:11:00,
2013-03-18 10:16:00,33.3,13.8,30.38,East,79,0.0,217.7,44,0.02,,,0.00,VWS V14.01,2013-03-18 14:16:00,
2013-03-18 10:22:00,34.1,14.7,30.38,East,79,0.0,217.7,44,0.02,,,0.00,VWS V14.01,2013-03-18 14:22:00,
2013-03-18 10:27:00,34.9,14.9,30.38,ENE,76,0.0,217.7,44,0.02,,,0.00,VWS V14.01,2013-03-18 14:27:00,
2013-03-18 10:32:00,35.0,13.7,30.37,ENE,66,0.0,217.7,41,0.02,,,0.00,VWS V14.01,2013-03-18 14:32:00,
2013-03-18 10:38:00,35.2,14.4,30.37,ENE,66,0.0,217.7,42,0.02,,,0.00,VWS V14.01,2013-03-18 14:38:00,
2013-03-18 10:43:00,35.4,14.2,30.37,ENE,66,0.0,217.7,41,0.02,,,0.00,VWS V14.01,2013-03-18 14:43:00,
2013-03-18 10:48:00,35.5,14.0,30.37,ENE,66,0.0,217.7,41,0.02,,,0.00,VWS V14.01,2013-03-18 14:48:00,
2013-03-18 10:53:00,35.5,13.8,30.37,ENE,66,0.0,217.7,40,0.02,,,0.00,VWS V14.01,2013-03-18 14:53:00,
2013-03-18 10:59:00,36.0,14.7,30.37,East,80,0.0,217.7,41,0.02,,,0.00,VWS V14.01,2013-03-18 14:59:00,
2013-03-18 11:04:00,35.9,14.1,30.36,East,80,0.0,217.7,40,0.02,,,0.00,VWS V14.01,2013-03-18 15:04:00,
2013-03-18 11:09:00,36.4,15.9,30.36,East,80,0.0,217.7,43,0.02,,,0.00,VWS V14.01,2013-03-18 15:09:00,
2013-03-18 11:15:00,36.8,14.8,30.36,SE,135,4.9,217.7,40,0.02,,,0.00,VWS V14.01,2013-03-18 15:15:00,
2013-03-18 11:20:00,37.4,15.6,30.36,East,94,0.0,217.7,40,0.02,,,0.00,VWS V14.01,2013-03-18 15:20:00,
2013-03-18 11:25:00,38.0,16.4,30.36,ENE,60,0.0,217.7,41,0.02,,,0.00,VWS V14.01,2013-03-18 15:25:00,
2013-03-18 11:30:00,38.4,16.0,30.36,ENE,60,0.0,217.7,40,0.02,,,0.00,VWS V14.01,2013-03-18 15:30:00,
2013-03-18 11:36:00,38.6,16.4,30.36,East,96,0.0,217.7,40,0.02,,,0.00,VWS V14.01,2013-03-18 15:36:00,
2013-03-18 11:41:00,38.9,15.7,30.36,ENE,76,0.0,217.7,38,0.02,,,0.00,VWS V14.01,2013-03-18 15:41:00,
2013-03-18 11:46:00,38.9,15.0,30.36,ESE,121,0.0,217.7,37,0.02,,,0.00,VWS V14.01,2013-03-18 15:46:00,
2013-03-18 11:51:00,39.4,16.1,30.36,SE,141,0.0,217.7,38,0.02,,,0.00,VWS V14.01,2013-03-18 15:51:00,
2013-03-18 11:57:00,39.8,15.6,30.36,SE,141,0.0,217.7,37,0.02,,,0.00,VWS V14.01,2013-03-18 15:57:00,
2013-03-18 12:02:00,40.5,16.7,30.36,SE,141,0.0,217.7,38,0.02,,,0.00,VWS V14.01,2013-03-18 16:02:00,
2013-03-18 12:07:00,41.0,17.1,30.36,SE,141,0.0,217.7,38,0.02,,,0.00,VWS V14.01,2013-03-18 16:07:00,
2013-03-18 12:12:00,41.5,16.9,30.36,SE,141,0.0,217.7,36,0.02,,,0.00,VWS V14.01,2013-03-18 16:12:00,
2013-03-18 12:18:00,41.1,16.1,30.35,SE,141,0.0,217.7,36,0.02,,,0.00,VWS V14.01,2013-03-18 16:18:00,
2013-03-18 12:23:00,41.3,17.7,30.35,ESE,121,0.0,217.7,38,0.02,,,0.00,VWS V14.01,2013-03-18 16:23:00,
2013-03-18 12:28:00,41.7,18.4,30.35,ESE,121,0.0,217.7,39,0.02,,,0.00,VWS V14.01,2013-03-18 16:28:00,
2013-03-18 12:33:00,41.9,17.1,30.35,ESE,121,0.0,217.7,36,0.02,,,0.00,VWS V14.01,2013-03-18 16:33:00,
2013-03-18 12:39:00,42.0,17.3,30.35,ESE,121,0.0,217.7,36,0.02,,,0.00,VWS V14.01,2013-03-18 16:39:00,
2013-03-18 12:44:00,42.4,17.2,30.35,ESE,121,0.0,217.7,36,0.02,,,0.00,VWS V14.01,2013-03-18 16:44:00,
2013-03-18 12:49:00,42.9,17.8,30.35,ESE,121,0.0,217.7,36,0.02,,,0.00,VWS V14.01,2013-03-18 16:49:00,
2013-03-18 12:54:00,43.3,18.2,30.35,East,90,5.2,217.7,36,0.02,,,0.00,VWS V14.01,2013-03-18 16:54:00,
2013-03-18 13:00:00,43.2,16.5,30.34,ENE,62,0.0,217.7,34,0.02,,,0.00,VWS V14.01,2013-03-18 17:00:00,
2013-03-18 13:05:00,43.2,18.4,30.34,ENE,62,0.0,217.7,36,0.02,,,0.00,VWS V14.01,2013-03-18 17:05:00,
2013-03-18 13:10:00,43.4,18.3,30.34,East,90,0.0,217.7,36,0.02,,,0.00,VWS V14.01,2013-03-18 17:10:00,
2013-03-18 13:15:00,43.5,18.2,30.33,East,90,0.0,217.7,36,0.02,,,0.00,VWS V14.01,2013-03-18 17:15:00,
2013-03-18 13:20:00,43.7,17.7,30.33,East,90,0.0,217.7,35,0.02,,,0.00,VWS V14.01,2013-03-18 17:20:00,
2013-03-18 13:26:00,43.8,18.5,30.33,ESE,122,0.0,217.7,36,0.02,,,0.00,VWS V14.01,2013-03-18 17:26:00,
2013-03-18 13:31:00,43.9,19.8,30.32,East,98,0.0,217.7,38,0.02,,,0.00,VWS V14.01,2013-03-18 17:31:00,
2013-03-18 13:36:00,43.9,18.7,30.31,East,87,0.0,217.7,36,0.02,,,0.00,VWS V14.01,2013-03-18 17:36:00,
2013-03-18 13:41:00,44.1,19.1,30.31,East,83,3.2,217.7,36,0.02,,,0.00,VWS V14.01,2013-03-18 17:41:00,
2013-03-18 13:47:00,43.7,18.4,30.31,East,83,0.0,217.7,36,0.02,,,0.00,VWS V14.01,2013-03-18 17:47:00,
2013-03-18 13:52:00,43.6,19.1,30.30,East,83,0.0,217.7,37,0.02,,,0.00,VWS V14.01,2013-03-18 17:52:00,
2013-03-18 13:57:00,43.6,19.3,30.29,SE,145,0.0,217.7,37,0.02,,,0.00,VWS V14.01,2013-03-18 17:57:00,
2013-03-18 14:02:00,43.5,19.1,30.29,SE,145,0.0,217.7,37,0.02,,,0.00,VWS V14.01,2013-03-18 18:02:00,
2013-03-18 14:08:00,43.5,19.1,30.28,SE,145,0.0,217.7,37,0.02,,,0.00,VWS V14.01,2013-03-18 18:08:00,
2013-03-18 14:13:00,43.4,19.0,30.28,ESE,104,0.0,217.7,37,0.02,,,0.00,VWS V14.01,2013-03-18 18:13:00,
2013-03-18 14:18:00,43.3,19.3,30.28,SSW,193,0.0,217.7,38,0.02,,,0.00,VWS V14.01,2013-03-18 18:18:00,
2013-03-18 14:23:00,43.1,18.7,30.28,SSW,193,0.0,217.7,37,0.02,,,0.00,VWS V14.01,2013-03-18 18:23:00,
2013-03-18 14:29:00,42.9,18.9,30.28,South,174,0.0,217.7,38,0.02,,,0.00,VWS V14.01,2013-03-18 18:29:00,
2013-03-18 14:34:00,42.7,18.8,30.28,South,174,0.0,217.7,38,0.02,,,0.00,VWS V14.01,2013-03-18 18:34:00,
2013-03-18 14:39:00,42.6,19.2,30.28,East,87,0.0,217.7,39,0.02,,,0.00,VWS V14.01,2013-03-18 18:39:00,
2013-03-18 14:44:00,42.4,18.6,30.27,ESE,115,0.0,217.7,38,0.02,,,0.00,VWS V14.01,2013-03-18 18:44:00,
2013-03-18 14:50:00,42.1,19.2,30.28,SE,128,0.0,217.7,40,0.02,,,0.00,VWS V14.01,2013-03-18 18:50:00,
2013-03-18 14:55:00,41.8,18.5,30.27,ESE,112,0.0,217.7,39,0.02,,,0.00,VWS V14.01,2013-03-18 18:55:00,
2013-03-18 15:00:00,41.8,19.3,30.27,ESE,115,0.0,217.7,40,0.02,,,0.00,VWS V14.01,2013-03-18 19:00:00,
2013-03-18 15:05:00,41.9,19.6,30.26,ESE,115,0.0,217.7,40,0.02,,,0.00,VWS V14.01,2013-03-18 19:05:00,
2013-03-18 15:11:00,41.9,19.1,30.26,ESE,115,0.0,217.7,40,0.02,,,0.00,VWS V14.01,2013-03-18 19:11:00,
2013-03-18 15:16:00,41.6,18.9,30.26,East,83,0.0,217.7,40,0.02,,,0.00,VWS V14.01,2013-03-18 19:16:00,
2013-03-18 15:21:00,41.4,19.3,30.26,East,83,0.0,217.7,41,0.02,,,0.00,VWS V14.01,2013-03-18 19:21:00,
2013-03-18 15:27:00,41.3,19.3,30.25,SE,146,0.0,217.7,41,0.02,,,0.00,VWS V14.01,2013-03-18 19:27:00,
2013-03-18 15:32:00,41.4,19.4,30.25,SE,146,0.0,217.7,41,0.02,,,0.00,VWS V14.01,2013-03-18 19:32:00,
2013-03-18 15:38:00,41.5,19.6,30.25,SSE,153,0.0,217.7,41,0.02,,,0.00,VWS V14.01,2013-03-18 19:38:00,
2013-03-18 15:43:00,41.4,19.3,30.25,SSE,153,0.0,217.7,41,0.02,,,0.00,VWS V14.01,2013-03-18 19:43:00,
2013-03-18 15:49:00,41.2,19.3,30.25,SSE,153,0.0,217.7,41,0.02,,,0.00,VWS V14.01,2013-03-18 19:49:00,
2013-03-18 15:54:00,41.0,19.3,30.25,SSE,153,0.0,217.7,41,0.02,,,0.00,VWS V14.01,2013-03-18 19:54:00,
2013-03-18 16:00:00,40.9,19.3,30.24,ESE,115,0.0,217.7,41,0.02,,,0.00,VWS V14.01,2013-03-18 20:00:00,
2013-03-18 16:05:00,40.8,19.5,30.24,SE,128,0.0,217.7,42,0.02,,,0.00,VWS V14.01,2013-03-18 20:05:00,
2013-03-18 16:10:00,40.5,19.6,30.24,SSE,156,0.0,217.7,43,0.02,,,0.00,VWS V14.01,2013-03-18 20:10:00,
2013-03-18 16:15:00,40.3,19.6,30.24,SSE,156,0.0,217.7,43,0.02,,,0.00,VWS V14.01,2013-03-18 20:15:00,
2013-03-18 16:21:00,40.2,19.2,30.24,SSE,156,0.0,217.7,42,0.02,,,0.00,VWS V14.01,2013-03-18 20:21:00,
2013-03-18 16:26:00,39.9,19.2,30.24,East,97,0.0,217.7,43,0.02,,,0.00,VWS V14.01,2013-03-18 20:26:00,
2013-03-18 16:31:00,39.8,19.1,30.24,ESE,108,0.0,217.7,43,0.02,,,0.00,VWS V14.01,2013-03-18 20:31:00,
2013-03-18 16:37:00,39.5,18.9,30.24,ESE,108,0.0,217.7,43,0.02,,,0.00,VWS V14.01,2013-03-18 20:37:00,
2013-03-18 16:42:00,39.4,18.9,30.23,ESE,108,0.0,217.7,43,0.02,,,0.00,VWS V14.01,2013-03-18 20:42:00,
2013-03-18 16:47:00,39.4,19.2,30.23,ESE,108,0.0,217.7,44,0.02,,,0.00,VWS V14.01,2013-03-18 20:47:00,
2013-03-18 16:53:00,39.4,19.4,30.23,ESE,115,0.0,217.7,44,0.02,,,0.00,VWS V14.01,2013-03-18 20:53:00,
2013-03-18 16:58:00,39.5,19.0,30.23,SE,135,0.0,217.7,43,0.02,,,0.00,VWS V14.01,2013-03-18 20:58:00,
2013-03-18 17:03:00,39.4,19.3,30.22,ESE,107,3.4,217.7,44,0.02,,,0.00,VWS V14.01,2013-03-18 21:03:00,
2013-03-18 17:08:00,39.3,19.4,30.21,ENE,62,0.0,217.7,44,0.02,,,0.00,VWS V14.01,2013-03-18 21:08:00,
2013-03-18 17:13:00,39.2,19.2,30.22,ENE,59,0.0,217.7,44,0.02,,,0.00,VWS V14.01,2013-03-18 21:13:00,
2013-03-18 17:19:00,38.9,18.9,30.21,NE,48,0.0,217.7,44,0.02,,,0.00,VWS V14.01,2013-03-18 21:19:00,
2013-03-18 17:24:00,38.8,19.5,30.21,NE,48,0.0,217.7,45,0.02,,,0.00,VWS V14.01,2013-03-18 21:24:00,
2013-03-18 17:29:00,38.7,19.0,30.21,NE,56,0.0,217.7,45,0.02,,,0.00,VWS V14.01,2013-03-18 21:29:00,
2013-03-18 17:34:00,38.5,19.1,30.21,ESE,112,0.0,217.7,45,0.02,,,0.00,VWS V14.01,2013-03-18 21:34:00,
2013-03-18 17:40:00,38.4,19.2,30.21,ESE,112,0.0,217.7,46,0.02,,,0.00,VWS V14.01,2013-03-18 21:40:00,
2013-03-18 17:45:00,38.2,20.2,30.21,ESE,117,3.0,217.7,48,0.02,,,0.00,VWS V14.01,2013-03-18 21:45:00,
2013-03-18 17:51:00,38.1,19.8,30.21,SE,129,0.0,217.7,47,0.02,,,0.00,VWS V14.01,2013-03-18 21:51:00,
2013-03-18 17:57:00,37.8,20.4,30.20,ESE,110,4.7,217.7,49,0.02,,,0.00,VWS V14.01,2013-03-18 21:57:00,
2013-03-18 18:02:00,37.3,19.5,30.20,ESE,107,6.2,217.7,48,0.02,,,0.00,VWS V14.01,2013-03-18 22:02:00,
2013-03-18 18:07:00,37.1,19.5,30.19,East,98,0.0,217.7,48,0.02,,,0.00,VWS V14.01,2013-03-18 22:07:00,
2013-03-18 18:13:00,37.0,19.6,30.19,East,98,0.0,217.7,49,0.02,,,0.00,VWS V14.01,2013-03-18 22:13:00,
2013-03-18 18:18:00,36.9,20.3,30.19,East,87,0.0,217.7,51,0.02,,,0.00,VWS V14.01,2013-03-18 22:18:00,
2013-03-18 18:23:00,36.5,22.4,30.19,ESE,103,0.0,217.7,56,0.02,,,0.00,VWS V14.01,2013-03-18 22:23:00,
2013-03-18 18:28:00,36.2,22.4,30.19,SSE,158,4.8,217.7,57,0.02,,,0.00,VWS V14.01,2013-03-18 22:28:00,
2013-03-18 18:34:00,35.7,24.2,30.18,ESE,115,4.2,217.7,63,0.02,,,0.00,VWS V14.01,2013-03-18 22:34:00,
2013-03-18 18:39:00,35.3,25.3,30.18,SSE,153,4.9,217.7,67,0.02,,,0.00,VWS V14.01,2013-03-18 22:39:00,
2013-03-18 18:44:00,34.8,26.4,30.18,NE,51,0.0,217.7,71,0.02,,,0.00,VWS V14.01,2013-03-18 22:44:00,
2013-03-18 18:50:00,34.3,25.8,30.18,ESE,105,2.7,217.7,71,0.02,,,0.00,VWS V14.01,2013-03-18 22:50:00,
2013-03-18 18:55:00,34.3,26.2,30.18,East,90,3.2,217.7,72,0.02,,,0.00,VWS V14.01,2013-03-18 22:55:00,
2013-03-18 19:00:00,34.2,26.8,30.18,East,90,0.0,217.7,74,0.02,,,0.00,VWS V14.01,2013-03-18 23:00:00,
2013-03-18 19:05:00,34.1,27.4,30.18,East,90,0.0,217.7,76,0.02,,,0.00,VWS V14.01,2013-03-18 23:05:00,
2013-03-18 19:11:00,33.8,27.8,30.18,East,82,0.0,217.7,78,0.02,,,0.00,VWS V14.01,2013-03-18 23:11:00,
2013-03-18 19:16:00,33.6,27.6,30.18,East,82,0.0,217.7,78,0.02,,,0.00,VWS V14.01,2013-03-18 23:16:00,
2013-03-18 19:21:00,33.5,27.8,30.18,East,82,0.0,217.7,79,0.02,,,0.00,VWS V14.01,2013-03-18 23:21:00,
2013-03-18 19:26:00,33.4,28.1,30.17,East,82,0.0,217.7,80,0.02,,,0.00,VWS V14.01,2013-03-18 23:26:00,
2013-03-18 19:32:00,33.2,28.5,30.18,ENE,73,0.0,217.7,83,0.02,,,0.00,VWS V14.01,2013-03-18 23:32:00,
2013-03-18 19:37:00,33.1,28.5,30.18,East,90,0.0,217.7,83,0.02,,,0.00,VWS V14.01,2013-03-18 23:37:00,
2013-03-18 19:42:00,33.0,28.4,30.18,East,90,0.0,217.7,83,0.02,,,0.00,VWS V14.01,2013-03-18 23:42:00,
2013-03-18 19:47:00,33.1,28.5,30.17,East,90,0.0,217.7,83,0.02,,,0.00,VWS V14.01,2013-03-18 23:47:00,
2013-03-18 19:53:00,33.2,28.5,30.18,East,90,0.0,217.7,82,0.02,,,0.00,VWS V14.01,2013-03-18 23:53:00,
2013-03-18 19:58:00,33.3,28.4,30.17,East,82,0.0,217.7,82,0.02,,,0.00,VWS V14.01,2013-03-18 23:58:00,
2013-03-18 20:03:00,33.2,28.9,30.16,East,82,0.0,217.7,84,0.02,,,0.00,VWS V14.01,2013-03-19 00:03:00,
2013-03-18 20:08:00,33.2,28.8,30.16,East,82,0.0,217.7,84,0.02,,,0.00,VWS V14.01,2013-03-19 00:08:00,
2013-03-18 20:14:00,33.1,29.0,30.15,ESE,103,0.0,217.7,85,0.02,,,0.00,VWS V14.01,2013-03-19 00:14:00,
2013-03-18 20:19:00,33.1,29.2,30.15,ENE,73,0.0,217.7,85,0.02,,,0.00,VWS V14.01,2013-03-19 00:19:00,
2013-03-18 20:24:00,33.2,29.4,30.15,East,91,0.0,217.7,86,0.02,,,0.00,VWS V14.01,2013-03-19 00:24:00,
2013-03-18 20:30:00,33.2,29.3,30.15,ESE,107,0.0,217.7,85,0.02,,,0.00,VWS V14.01,2013-03-19 00:30:00,
2013-03-18 20:35:00,33.3,29.4,30.15,East,93,0.0,217.7,85,0.02,,,0.00,VWS V14.01,2013-03-19 00:35:00,
2013-03-18 20:40:00,33.2,29.5,30.14,East,93,0.0,217.7,86,0.02,,,0.00,VWS V14.01,2013-03-19 00:40:00,
2013-03-18 20:46:00,33.0,29.5,30.14,ESE,105,0.0,217.7,87,0.02,,,0.00,VWS V14.01,2013-03-19 00:46:00,
2013-03-18 20:51:00,33.0,29.5,30.13,ESE,121,0.0,217.7,87,0.02,,,0.00,VWS V14.01,2013-03-19 00:51:00,
2013-03-18 20:57:00,33.0,29.6,30.13,ESE,121,0.0,217.7,87,0.02,,,0.00,VWS V14.01,2013-03-19 00:57:00,
2013-03-18 21:02:00,32.8,29.6,30.13,SE,141,0.0,217.7,88,0.02,,,0.00,VWS V14.01,2013-03-19 01:02:00,
2013-03-18 21:07:00,32.8,29.9,30.13,NE,37,0.0,217.7,89,0.02,,,0.00,VWS V14.01,2013-03-19 01:07:00,
2013-03-18 21:12:00,32.8,29.8,30.13,ENE,63,0.0,217.7,89,0.02,,,0.00,VWS V14.01,2013-03-19 01:12:00,
2013-03-18 21:18:00,33.0,30.1,30.13,SE,136,0.0,217.7,89,0.02,,,0.00,VWS V14.01,2013-03-19 01:18:00,
2013-03-18 21:23:00,32.9,30.1,30.13,ENE,63,0.0,217.7,89,0.02,,,0.00,VWS V14.01,2013-03-19 01:23:00,
2013-03-18 21:28:00,32.9,30.1,30.13,East,96,0.0,217.7,89,0.02,,,0.00,VWS V14.01,2013-03-19 01:28:00,
2013-03-18 21:34:00,32.9,30.1,30.12,South,188,0.0,217.7,89,0.02,,,0.00,VWS V14.01,2013-03-19 01:34:00,
2013-03-18 21:39:00,32.8,30.4,30.12,East,79,0.0,217.7,91,0.02,,,0.00,VWS V14.01,2013-03-19 01:39:00,
2013-03-18 21:44:00,32.7,30.3,30.12,East,97,0.0,217.7,91,0.02,,,0.00,VWS V14.01,2013-03-19 01:44:00,
2013-03-18 21:49:00,32.8,30.3,30.12,East,97,0.0,217.7,90,0.02,,,0.00,VWS V14.01,2013-03-19 01:49:00,
2013-03-18 21:55:00,32.9,30.4,30.12,ENE,65,0.0,217.7,90,0.02,,,0.00,VWS V14.01,2013-03-19 01:55:00,
2013-03-18 22:00:00,33.0,30.6,30.11,ENE,65,0.0,217.7,91,0.02,,,0.00,VWS V14.01,2013-03-19 02:00:00,
2013-03-18 22:05:00,33.0,30.7,30.11,ENE,65,0.0,217.7,91,0.02,,,0.00,VWS V14.01,2013-03-19 02:05:00,
2013-03-18 22:10:00,32.8,30.5,30.10,East,79,0.0,217.7,91,0.02,,,0.00,VWS V14.01,2013-03-19 02:10:00,
2013-03-18 22:16:00,32.8,30.6,30.10,ESE,103,0.0,217.7,92,0.02,,,0.00,VWS V14.01,2013-03-19 02:16:00,
2013-03-18 22:21:00,32.9,30.6,30.10,ESE,121,0.0,217.7,91,0.02,,,0.00,VWS V14.01,2013-03-19 02:21:00,
2013-03-18 22:26:00,32.8,30.6,30.09,ESE,121,0.0,217.7,92,0.02,,,0.00,VWS V14.01,2013-03-19 02:26:00,
2013-03-18 22:32:00,32.9,30.7,30.09,SE,141,0.0,217.7,92,0.02,,,0.00,VWS V14.01,2013-03-19 02:32:00,
2013-03-18 22:37:00,32.9,30.6,30.08,ESE,105,0.0,217.7,91,0.02,,,0.00,VWS V14.01,2013-03-19 02:37:00,
2013-03-18 22:42:00,33.1,30.8,30.09,ESE,120,0.0,217.7,91,0.02,,,0.00,VWS V14.01,2013-03-19 02:42:00,
2013-03-18 22:48:00,33.2,30.9,30.09,ENE,62,0.0,217.7,91,0.02,,,0.00,VWS V14.01,2013-03-19 02:48:00,
2013-03-18 22:53:00,33.1,30.8,30.08,ENE,62,0.0,217.7,91,0.02,,,0.00,VWS V14.01,2013-03-19 02:53:00,
2013-03-18 22:58:00,33.1,30.8,30.08,ENE,62,0.0,217.7,91,0.02,,,0.00,VWS V14.01,2013-03-19 02:58:00,
2013-03-18 23:04:00,33.1,30.9,30.08,ENE,62,0.0,217.7,91,0.02,,,0.00,VWS V14.01,2013-03-19 03:04:00,
2013-03-18 23:09:00,33.0,30.8,30.07,NE,34,0.0,217.7,92,0.02,,,0.00,VWS V14.01,2013-03-19 03:09:00,
2013-03-18 23:14:00,33.1,30.9,30.07,SE,145,6.0,217.7,91,0.02,,,0.00,VWS V14.01,2013-03-19 03:14:00,
2013-03-18 23:19:00,33.2,30.9,30.07,East,90,0.0,217.7,91,0.02,,,0.00,VWS V14.01,2013-03-19 03:19:00,
2013-03-18 23:25:00,33.1,30.9,30.06,East,83,0.0,217.7,91,0.02,,,0.00,VWS V14.01,2013-03-19 03:25:00,
2013-03-18 23:30:00,33.1,30.9,30.06,East,83,0.0,217.7,92,0.02,,,0.00,VWS V14.01,2013-03-19 03:30:00,
2013-03-18 23:35:00,33.0,30.9,30.05,ENE,73,0.0,217.7,92,0.02,,,0.00,VWS V14.01,2013-03-19 03:35:00,
2013-03-18 23:41:00,33.2,31.1,30.05,ENE,75,0.0,217.7,92,0.02,,,0.00,VWS V14.01,2013-03-19 03:41:00,
2013-03-18 23:46:00,33.0,30.9,30.05,ENE,75,0.0,217.7,92,0.02,,,0.00,VWS V14.01,2013-03-19 03:46:00,
2013-03-18 23:51:00,33.0,31.0,30.05,ESE,121,0.0,217.7,92,0.02,,,0.00,VWS V14.01,2013-03-19 03:51:00,
2013-03-18 23:56:00,33.0,30.9,30.04,ENE,66,0.0,217.7,92,0.02,,,0.00,VWS V14.01,2013-03-19 03:56:00,